QPF
0.00 0.00 0.00 0.00 0.00 0.00 0.00 0.00 0.00 0.00 0.00 0.00 0.00 0.00 0.00 0.00 0.00 0.00 0.00 0.00 0.00 0.00 0.00 0.00 0.00 0.00 0.00 0.00 0.00 0.00 0.00 0.00 0.00 0.00 0.00 0.00 0.00 0.00 0.00 0.00 0.00 0.01 0.02 0.01 0.00 0.00 0.01 0.00 0.00
0.00 0.00 0.00 0.00 0.00 0.00 0.00 0.00 0.00 0.00 0.00 0.00 0.00 0.00 0.00 0.00 0.00 0.00 0.00 0.00 0.00 0.00 0.00 0.00 0.00 0.00 0.00 0.00 0.00 0.00 0.00 0.00 0.00 0.00 0.00 0.00 0.00 0.00 0.00 0.00 0.00 0.00 0.00 0.00 0.00 0.00 0.00 0.00 0.00
0.00 0.00 0.00 0.00 0.00 0.00 0.00 0.00 0.00 0.00 0.00 0.00 0.00 0.00 0.00 0.00 0.00 0.00 0.00 0.00 0.00 0.00 0.00 0.00 0.00 0.00 0.00 0.00 0.00 0.00 0.00 0.00 0.00 0.01 0.00 0.00 0.00 0.00 0.00 0.00 0.00 0.00 0.00 0.00 0.00 0.00 0.00 0.00 0.00
0.00 0.00 0.00 0.00 0.00 0.00 0.00 0.00 0.00 0.00 0.00 0.00 0.00 0.00 0.00 0.00 0.00 0.00 0.00 0.00 0.00 0.00 0.00 0.00 0.00 0.00 0.00 0.00 0.00 0.00 0.00 0.00 0.00 0.01 0.00 0.00 0.00 0.00 0.00 0.00 0.00 0.00 0.00 0.00 0.00 0.00 0.00 0.00 0.00
0.00 0.00 0.00 0.00 0.00 0.00 0.00 0.00 0.00 0.00 0.00 0.00 0.00 0.00 0.00 0.00 0.00 0.00 0.00 0.00 0.00 0.00 0.00 0.00 0.00 0.00 0.00 0.00 0.00 0.00 0.00 0.00 0.00 0.00 0.00 0.00 0.00 0.00 0.00 0.00 0.00 0.00 0.00 0.00 0.00 0.00 0.00 0.00 0.00
0.00 0.00 0.00 0.00 0.00 0.00 0.00 0.00 0.00 0.00 0.00 0.00 0.00 0.00 0.00 0.00 0.00 0.00 0.00 0.00 0.00 0.00 0.00 0.00 0.00 0.00 0.00 0.00 0.00 0.00 0.00 0.00 0.00 0.00 0.00 0.00 0.00 0.00 0.00 0.00 0.00 0.00 0.00 0.00 0.00 0.00 0.00 0.00 0.00
0.00 0.00 0.00 0.00 0.00 0.00 0.00 0.00 0.00 0.00 0.00 0.00 0.00 0.00 0.00 0.00 0.00 0.00 0.00 0.00 0.00 0.00 0.00 0.00 0.00 0.00 0.00 0.00 0.00 0.00 0.00 0.00 0.00 0.00 0.00 0.00 0.00 0.00 0.00 0.00 0.00 0.00 0.00 0.00 0.00 0.00 0.00 0.00 0.00
0.00 0.00 0.00 0.00 0.00 0.00 0.00 0.00 0.00 0.00 0.00 0.00 0.00 0.00 0.00 0.00 0.00 0.00 0.00 0.00 0.00 0.00 0.01 0.00 0.00 0.00 0.00 0.00 0.00 0.00 0.00 0.00 0.00 0.00 0.00 0.00 0.00 0.00 0.00 0.00 0.00 0.00 0.00 0.00 0.00 0.00 0.00 0.00 0.00
0.00 0.00 0.00 0.00 0.00 0.00 0.00 0.00 0.00 0.00 0.00 0.00 0.00 0.00 0.00 0.00 0.00 0.00 0.00 0.00 0.00 0.00 0.00 0.00 0.00 0.00 0.00 0.00 0.00 0.00 0.00 0.00 0.00 0.00 0.00 0.00 0.00 0.00 0.00 0.00 0.00 0.00 0.00 0.00 0.00 0.00 0.00 0.00 0.00
0.00 0.00 0.00 0.00 0.00 0.00 0.00 0.00 0.00 0.00 0.00 0.00 0.00 0.00 0.00 0.00 0.00 0.00 0.00 0.00 0.00 0.00 0.00 0.00 0.00 0.00 0.00 0.00 0.00 0.00 0.00 0.00 0.00 0.00 0.00 0.00 0.00 0.00 0.00 0.00 0.00 0.00 0.00 0.00 0.00 0.00 0.00 0.00 0.00
0.00 0.00 0.00 0.00 0.00 0.00 0.00 0.00 0.00 0.00 0.00 0.00 0.00 0.00 0.00 0.00 0.00 0.00 0.00 0.00 0.00 0.00 0.00 0.00 0.00 0.00 0.00 0.00 0.00 0.00 0.00 0.00 0.00 0.00 0.00 0.00 0.00 0.00 0.00 0.00 0.00 0.00 0.00 0.00 0.00 0.00 0.00 0.00 0.00
0.00 0.00 0.00 0.00 0.00 0.00 0.00 0.00 0.00 0.00 0.00 0.00 0.00 0.00 0.00 0.00 0.00 0.00 0.00 0.00 0.00 0.00 0.00 0.00 0.00 0.00 0.00 0.00 0.00 0.00 0.00 0.00 0.00 0.00 0.00 0.00 0.00 0.00 0.00 0.00 0.00 0.00 0.00 0.00 0.00 0.00 0.00 0.00 0.00
0.00 0.00 0.00 0.00 0.00 0.00 0.00 0.00 0.00 0.00 0.00 0.00 0.00 0.00 0.00 0.00 0.00 0.00 0.00 0.00 0.00 0.00 0.00 0.00 0.00 0.00 0.00 0.00 0.00 0.00 0.00 0.00 0.00 0.00 0.00 0.00 0.00 0.00 0.00 0.00 0.00 0.00 0.00 0.00 0.00 0.00 0.00 0.00 0.00
0.00 0.00 0.00 0.00 0.00 0.00 0.00 0.00 0.00 0.00 0.00 0.00 0.00 0.00 0.00 0.00 0.00 0.00 0.00 0.00 0.00 0.00 0.00 0.00 0.00 0.00 0.00 0.00 0.00 0.00 0.00 0.00 0.00 0.00 0.00 0.00 0.00 0.00 0.00 0.00 0.00 0.00 0.00 0.00 0.00 0.00 0.00 0.00 0.00
0.00 0.00 0.00 0.00 0.00 0.00 0.00 0.00 0.00 0.00 0.00 0.00 0.00 0.00 0.00 0.00 0.00 0.00 0.00 0.00 0.00 0.00 0.00 0.00 0.00 0.00 0.00 0.00 0.00 0.00 0.00 0.00 0.00 0.00 0.00 0.00 0.00 0.00 0.00 0.00 0.00 0.00 0.00 0.00 0.00 0.00 0.00 0.00 0.00
0.00 0.00 0.00 0.00 0.00 0.00 0.00 0.00 0.00 0.00 0.00 0.00 0.00 0.00 0.00 0.00 0.00 0.00 0.00 0.00 0.00 0.00 0.00 0.00 0.00 0.00 0.00 0.00 0.00 0.01 0.01 0.00 0.00 0.00 0.00 0.00 0.00 0.00 0.00 0.00 0.00 0.00 0.00 0.00 0.00 0.00 0.00 0.00 0.00
0.00 0.00 0.00 0.00 0.00 0.00 0.00 0.00 0.00 0.00 0.00 0.00 0.00 0.00 0.00 0.00 0.00 0.00 0.00 0.00 0.00 0.00 0.00 0.00 0.00 0.00 0.01 0.02 0.01 0.02 0.03 0.00 0.00 0.01 0.00 0.00 0.00 0.00 0.00 0.00 0.00 0.00 0.00 0.00 0.00 0.00 0.00 0.00 0.00
0.00 0.00 0.00 0.00 0.00 0.00 0.00 0.00 0.00 0.00 0.00 0.00 0.00 0.00 0.00 0.00 0.00 0.00 0.00 0.00 0.00 0.00 0.00 0.00 0.00 0.00 0.02 0.04 0.05 0.04 0.05 0.01 0.00 0.00 0.00 0.00 0.00 0.00 0.00 0.00 0.00 0.00 0.00 0.00 0.00 0.00 0.00 0.00 0.00
0.00 0.00 0.00 0.00 0.00 0.00 0.00 0.00 0.00 0.00 0.00 0.00 0.00 0.00 0.00 0.00 0.00 0.00 0.00 0.00 0.00 0.00 0.00 0.00 0.00 0.00 0.02 0.03 0.02 0.02 0.04 0.05 0.03 0.01 0.00 0.00 0.01 0.01 0.00 0.00 0.00 0.00 0.00 0.00 0.00 0.00 0.00 0.00 0.00
0.00 0.00 0.00 0.00 0.00 0.00 0.00 0.00 0.00 0.00 0.00 0.00 0.00 0.00 0.00 0.00 0.00 0.00 0.00 0.00 0.00 0.00 0.00 0.00 0.00 0.00 0.00 0.01 0.01 0.03 0.05 0.07 0.08 0.07 0.02 0.00 0.01 0.07 0.02 0.00 0.00 0.00 0.00 0.00 0.00 0.00 0.00 0.00 0.00
0.00 0.00 0.00 0.00 0.00 0.00 0.00 0.00 0.00 0.00 0.00 0.00 0.00 0.00 0.00 0.00 0.00 0.00 0.00 0.00 0.00 0.00 0.00 0.00 0.00 0.00 0.00 0.00 0.03 0.06 0.06 0.06 0.08 0.07 0.02 0.01 0.03 0.13 0.07 0.01 0.01 0.00 0.00 0.00 0.00 0.00 0.00 0.00 0.00
0.00 0.00 0.00 0.00 0.00 0.00 0.00 0.00 0.00 0.00 0.00 0.00 0.00 0.00 0.00 0.00 0.00 0.00 0.00 0.00 0.00 0.00 0.00 0.00 0.00 0.00 0.00 0.00 0.00 0.01 0.00 0.00 0.01 0.02 0.05 0.09 0.08 0.11 0.09 0.06 0.05 0.03 0.01 0.00 0.00 0.00 0.00 0.00 0.00
0.00 0.00 0.00 0.00 0.00 0.00 0.00 0.00 0.00 0.00 0.00 0.00 0.00 0.00 0.00 0.00 0.00 0.00 0.00 0.00 0.00 0.00 0.00 0.00 0.00 0.00 0.00 0.00 0.00 0.00 0.01 0.01 0.01 0.04 0.07 0.09 0.14 0.13 0.10 0.06 0.05 0.04 0.02 0.01 0.02 0.01 0.00 0.00 0.00
0.00 0.00 0.00 0.00 0.00 0.00 0.00 0.00 0.00 0.00 0.00 0.00 0.00 0.00 0.00 0.00 0.00 0.00 0.00 0.00 0.00 0.00 0.00 0.00 0.00 0.00 0.00 0.00 0.00 0.00 0.00 0.00 0.01 0.02 0.03 0.04 0.07 0.09 0.07 0.06 0.03 0.03 0.03 0.04 0.02 0.01 0.00 0.00 0.00
0.00 0.00 0.00 0.00 0.00 0.00 0.00 0.00 0.00 0.00 0.00 0.00 0.00 0.00 0.00 0.00 0.00 0.00 0.00 0.00 0.00 0.00 0.00 0.00 0.00 0.00 0.00 0.00 0.00 0.00 0.00 0.00 0.00 0.01 0.01 0.02 0.04 0.04 0.06 0.05 0.02 0.02 0.02 0.02 0.01 0.00 0.00 0.00 0.00
0.00 0.00 0.00 0.00 0.00 0.00 0.00 0.00 0.00 0.00 0.00 0.00 0.00 0.00 0.00 0.00 0.00 0.00 0.00 0.00 0.00 0.00 0.00 0.00 0.00 0.00 0.00 0.00 0.00 0.00 0.00 0.00 0.01 0.01 0.01 0.02 0.03 0.04 0.03 0.02 0.01 0.01 0.00 0.01 0.01 0.01 0.00 0.00 0.00
0.00 0.00 0.00 0.00 0.00 0.00 0.00 0.00 0.00 0.00 0.00 0.00 0.00 0.00 0.00 0.00 0.00 0.00 0.00 0.00 0.00 0.00 0.00 0.00 0.00 0.00 0.00 0.00 0.00 0.00 0.00 0.01 0.01 0.02 0.03 0.04 0.05 0.04 0.03 0.02 0.01 0.00 0.00 0.01 0.01 0.00 0.00 0.00 0.00
0.00 0.00 0.00 0.00 0.00 0.00 0.00 0.00 0.00 0.00 0.00 0.00 0.00 0.00 0.00 0.00 0.00 0.00 0.00 0.00 0.00 0.00 0.00 0.00 0.00 0.00 0.00 0.00 0.00 0.00 0.00 0.01 0.02 0.03 0.04 0.03 0.02 0.02 0.01 0.01 0.00 0.00 0.00 0.00 0.01 0.00 0.00 0.00 0.00
0.00 0.00 0.00 0.00 0.00 0.00 0.00 0.00 0.00 0.00 0.00 0.00 0.00 0.00 0.00 0.00 0.00 0.00 0.00 0.00 0.00 0.00 0.00 0.00 0.00 0.00 0.00 0.00 0.00 0.01 0.02 0.04 0.03 0.03 0.03 0.02 0.01 0.01 0.00 0.00 0.00 0.00 0.00 0.01 0.01 0.00 0.00 0.00 0.00
0.00 0.00 0.00 0.00 0.00 0.00 0.00 0.00 0.00 0.00 0.00 0.00 0.00 0.00 0.00 0.00 0.00 0.00 0.00 0.00 0.00 0.00 0.00 0.00 0.00 0.00 0.00 0.00 0.00 0.00 0.02 0.04 0.04 0.03 0.01 0.00 0.01 0.00 0.00 0.00 0.00 0.00 0.00 0.00 0.00 0.00 0.00 0.00 0.00
MSLP
1013.62 1013.59 1013.62 1014.16 1015.77 1016.27 1015.68 1014.11 1012.61 1011.39 1010.31 1009.10 1008.60 1008.56 1009.05 1009.40 1010.04 1010.97 1010.37 1010.87 1011.32 1011.97 1012.22 1012.58 1012.82 1013.00 1013.23 1013.56 1013.87 1014.12 1014.34 1014.55 1014.80 1015.07 1015.32 1015.58 1015.81 1015.92 1016.11 1016.22 1016.14 1016.08 1015.95 1016.15 1016.33 1016.45 1016.67 1016.88 1017.08
1013.81 1013.75 1014.16 1015.20 1016.26 1016.50 1015.06 1013.32 1012.19 1011.01 1009.77 1009.17 1008.27 1008.51 1009.01 1009.53 1009.77 1010.59 1010.95 1011.16 1011.14 1011.69 1012.28 1012.65 1012.89 1013.10 1013.36 1013.64 1013.95 1014.20 1014.41 1014.62 1014.86 1015.13 1015.37 1015.59 1015.84 1016.06 1016.22 1016.37 1016.49 1016.47 1016.46 1016.54 1016.72 1016.88 1017.04 1017.15 1017.24
1013.93 1014.09 1015.09 1015.82 1016.36 1016.04 1014.67 1012.71 1011.60 1010.33 1009.25 1008.76 1008.32 1008.38 1008.94 1009.39 1009.56 1010.07 1010.14 1010.92 1011.26 1011.79 1012.24 1012.75 1013.08 1013.28 1013.55 1013.79 1014.03 1014.31 1014.52 1014.79 1015.03 1015.30 1015.60 1015.87 1016.00 1016.21 1016.39 1016.53 1016.71 1016.88 1017.00 1017.08 1017.14 1017.26 1017.31 1017.37 1017.40
1014.22 1014.82 1015.82 1016.03 1016.02 1014.76 1013.53 1012.19 1011.23 1010.54 1009.45 1008.49 1008.30 1008.88 1009.13 1009.20 1009.32 1009.60 1010.24 1010.79 1011.32 1011.93 1012.32 1012.82 1013.21 1013.43 1013.75 1014.02 1014.22 1014.47 1014.66 1014.87 1015.10 1015.34 1015.72 1016.02 1016.22 1016.40 1016.62 1016.76 1016.92 1017.05 1017.18 1017.29 1017.41 1017.49 1017.55 1017.64 1017.67
1014.56 1015.41 1016.09 1016.23 1015.43 1014.21 1012.91 1012.19 1011.31 1010.72 1009.86 1008.61 1008.38 1009.16 1009.40 1009.28 1009.36 1009.77 1010.24 1010.80 1011.38 1012.11 1012.41 1012.91 1013.29 1013.58 1013.82 1014.03 1014.25 1014.48 1014.65 1014.93 1015.17 1015.43 1015.74 1016.04 1016.39 1016.63 1016.79 1016.94 1017.09 1017.12 1017.23 1017.40 1017.56 1017.63 1017.74 1017.79 1017.83
1015.17 1015.58 1016.31 1016.06 1015.00 1013.86 1012.73 1011.76 1011.46 1010.72 1009.76 1008.85 1008.74 1009.23 1009.85 1009.73 1009.80 1010.32 1010.68 1010.98 1011.25 1011.86 1012.43 1012.99 1013.38 1013.71 1013.95 1014.11 1014.31 1014.54 1014.61 1014.81 1015.19 1015.46 1015.76 1015.99 1016.34 1016.73 1016.97 1017.12 1017.27 1017.32 1017.33 1017.43 1017.59 1017.70 1017.73 1017.79 1017.79
1015.16 1015.76 1015.84 1015.41 1014.74 1013.89 1012.14 1011.47 1011.28 1010.28 1009.56 1008.74 1008.49 1009.53 1010.12 1010.06 1010.10 1010.35 1010.91 1011.46 1011.75 1011.85 1012.38 1012.95 1013.39 1013.70 1013.99 1014.22 1014.40 1014.63 1014.79 1014.95 1015.18 1015.52 1015.85 1016.09 1016.41 1016.77 1016.96 1017.13 1017.23 1017.37 1017.48 1017.52 1017.58 1017.68 1017.73 1017.79 1017.77
1014.80 1015.58 1015.62 1014.95 1014.32 1013.01 1011.67 1011.23 1010.55 1010.11 1009.07 1008.33 1008.23 1009.46 1010.07 1009.83 1009.94 1010.57 1011.20 1011.82 1012.18 1012.32 1012.62 1012.75 1013.29 1013.72 1014.08 1014.39 1014.49 1014.69 1014.84 1014.97 1015.25 1015.53 1015.87 1016.16 1016.40 1016.66 1016.93 1017.17 1017.35 1017.47 1017.54 1017.59 1017.73 1017.72 1017.72 1017.83 1017.95
1014.45 1015.36 1015.28 1014.36 1013.76 1012.51 1011.53 1011.31 1010.37 1009.35 1009.17 1008.67 1008.60 1008.78 1008.57 1009.19 1009.95 1010.71 1011.62 1012.15 1012.43 1012.64 1012.66 1012.89 1013.27 1013.74 1014.07 1014.45 1014.65 1014.81 1014.92 1015.11 1015.34 1015.59 1015.88 1016.15 1016.45 1016.71 1016.86 1017.05 1017.25 1017.39 1017.56 1017.52 1017.72 1017.81 1017.92 1017.91 1018.08
1014.38 1014.70 1014.26 1013.35 1012.86 1012.43 1011.89 1011.61 1011.05 1010.36 1009.72 1009.49 1009.17 1008.81 1008.90 1009.38 1010.02 1010.62 1011.33 1011.79 1012.16 1012.44 1012.73 1012.97 1013.22 1013.55 1014.00 1014.32 1014.72 1014.95 1015.06 1015.20 1015.46 1015.71 1015.97 1016.22 1016.43 1016.61 1016.79 1017.02 1017.25 1017.35 1017.50 1017.56 1017.69 1017.87 1017.92 1018.05 1018.27
1014.05 1013.83 1013.57 1012.84 1012.48 1012.40 1011.94 1011.75 1011.56 1011.03 1010.51 1010.49 1010.18 1009.62 1009.55 1009.82 1010.03 1010.36 1010.81 1010.89 1011.24 1011.94 1012.45 1012.71 1012.98 1013.17 1013.63 1013.92 1014.55 1014.96 1015.14 1015.33 1015.48 1015.64 1015.87 1016.17 1016.39 1016.50 1016.64 1016.97 1017.16 1017.38 1017.53 1017.75 1017.87 1018.07 1018.22 1018.24 1018.41
1013.89 1013.42 1013.01 1012.72 1012.37 1012.52 1012.17 1011.80 1011.72 1011.57 1010.87 1010.59 1010.81 1010.42 1010.34 1010.33 1010.46 1010.22 1010.30 1010.60 1011.11 1011.49 1011.63 1012.14 1012.56 1012.86 1013.19 1013.55 1014.09 1014.47 1014.85 1015.12 1015.49 1015.62 1015.80 1016.13 1016.34 1016.50 1016.63 1016.84 1017.15 1017.39 1017.55 1017.91 1018.07 1018.28 1018.41 1018.44 1018.64
1013.59 1013.31 1012.85 1012.51 1012.44 1012.42 1012.22 1012.05 1011.83 1011.54 1011.10 1010.59 1010.87 1010.94 1010.66 1010.54 1010.38 1010.42 1010.27 1010.27 1010.41 1010.85 1011.10 1011.47 1012.00 1012.29 1012.68 1013.15 1013.60 1014.01 1014.39 1014.70 1014.87 1015.24 1015.52 1015.78 1016.10 1016.30 1016.50 1016.71 1016.92 1017.25 1017.45 1017.76 1018.02 1018.27 1018.54 1018.79 1018.91
1012.97 1013.01 1012.89 1012.53 1012.51 1012.48 1012.32 1012.08 1012.02 1011.41 1011.21 1011.01 1010.73 1010.78 1010.89 1010.54 1010.19 1010.26 1010.28 1010.27 1010.45 1010.28 1010.47 1010.85 1011.34 1011.67 1011.94 1012.39 1012.91 1013.44 1013.81 1014.06 1014.50 1014.60 1014.93 1015.29 1015.56 1015.91 1016.28 1016.61 1016.84 1017.06 1017.31 1017.56 1017.82 1018.19 1018.51 1018.75 1018.98
1012.85 1013.19 1013.16 1012.72 1012.47 1012.41 1012.23 1011.56 1011.41 1011.44 1011.20 1011.34 1010.91 1010.66 1010.39 1010.41 1009.95 1009.97 1009.84 1010.02 1009.93 1009.85 1009.83 1010.26 1010.62 1011.05 1011.51 1011.69 1012.19 1012.53 1012.87 1013.35 1013.83 1014.17 1014.59 1014.94 1015.18 1015.49 1015.86 1016.31 1016.68 1016.71 1017.02 1017.44 1017.89 1018.42 1018.73 1018.93 1019.19
1013.16 1013.49 1013.46 1012.70 1012.37 1012.29 1012.62 1010.72 1011.18 1011.00 1011.26 1011.34 1010.96 1010.70 1010.23 1009.86 1009.69 1009.39 1009.14 1009.25 1009.16 1009.63 1009.64 1009.73 1009.89 1010.33 1010.85 1011.15 1011.63 1012.05 1012.27 1012.64 1013.31 1013.66 1013.93 1014.32 1014.66 1014.93 1015.57 1016.02 1016.52 1016.65 1017.04 1017.45 1018.09 1018.56 1018.91 1019.26 1019.50
1013.69 1013.97 1013.80 1013.30 1012.40 1012.42 1012.35 1011.56 1010.86 1010.36 1010.99 1011.14 1010.87 1010.58 1010.33 1009.63 1009.10 1008.89 1008.64 1008.56 1008.58 1008.75 1009.12 1009.30 1009.42 1009.66 1010.04 1010.60 1011.18 1011.39 1011.70 1012.07 1012.53 1013.08 1013.40 1013.73 1014.21 1014.51 1015.10 1015.62 1016.27 1016.67 1017.17 1017.67 1018.00 1018.56 1018.93 1019.66 1019.91
1013.96 1014.04 1013.89 1013.56 1012.64 1012.36 1012.29 1012.04 1011.05 1010.71 1010.81 1010.70 1010.67 1010.02 1009.74 1009.38 1008.37 1008.15 1008.19 1008.12 1008.13 1008.08 1008.44 1008.60 1008.71 1009.04 1009.62 1010.18 1010.70 1011.11 1011.58 1011.71 1011.84 1012.37 1012.74 1013.15 1013.62 1014.17 1014.72 1015.43 1016.14 1016.66 1017.35 1017.87 1018.16 1018.52 1019.22 1019.69 1019.98
1013.80 1013.95 1014.11 1013.62 1013.21 1013.07 1012.57 1012.30 1011.43 1010.76 1010.67 1010.38 1010.00 1009.52 1009.11 1008.55 1007.78 1007.91 1007.88 1007.79 1007.89 1007.90 1007.92 1008.21 1008.23 1008.32 1008.97 1009.79 1010.39 1010.78 1011.21 1011.48 1011.57 1011.85 1011.88 1012.56 1013.06 1013.77 1014.39 1015.16 1015.87 1016.49 1017.01 1017.40 1018.01 1018.93 1019.49 1020.05 1020.07
1014.18 1014.25 1014.32 1013.93 1013.70 1013.62 1013.04 1012.06 1011.16 1010.11 1009.54 1009.14 1008.83 1008.34 1008.14 1008.10 1007.67 1007.58 1007.48 1007.53 1007.56 1007.47 1007.56 1007.69 1007.87 1007.75 1007.86 1008.37 1008.93 1009.39 1009.90 1010.62 1010.82 1011.41 1011.48 1011.87 1012.36 1013.15 1013.79 1014.64 1015.39 1015.95 1016.73 1017.55 1018.03 1018.44 1019.59 1020.09 1020.13
1014.21 1014.44 1014.77 1014.97 1014.48 1014.27 1013.79 1011.99 1010.64 1009.37 1008.50 1007.90 1007.52 1007.41 1007.58 1007.39 1007.13 1007.12 1007.18 1007.12 1007.26 1007.37 1007.18 1007.27 1007.30 1007.40 1007.13 1007.38 1008.23 1009.29 1009.93 1010.63 1011.09 1011.50 1011.56 1011.85 1011.95 1012.76 1013.45 1014.01 1014.70 1015.46 1016.19 1017.08 1017.78 1018.22 1018.79 1019.79 1020.19
1014.25 1014.69 1015.05 1015.54 1015.83 1016.19 1015.49 1014.13 1011.82 1009.83 1008.79 1007.89 1007.33 1007.40 1007.09 1007.00 1006.73 1006.61 1006.64 1006.59 1006.49 1006.43 1006.41 1006.59 1006.67 1006.84 1006.96 1006.95 1007.89 1008.35 1008.72 1009.82 1010.07 1010.32 1011.10 1011.80 1012.33 1012.66 1013.35 1013.89 1014.36 1015.09 1015.65 1016.53 1017.42 1018.05 1018.47 1018.94 1019.82
1014.60 1015.03 1015.77 1016.50 1017.13 1017.36 1016.54 1016.14 1011.94 1010.47 1009.03 1007.90 1007.32 1006.95 1006.58 1006.54 1006.60 1006.49 1006.43 1006.11 1006.01 1006.11 1006.25 1006.26 1006.31 1006.36 1006.50 1006.99 1006.95 1007.90 1008.38 1008.73 1009.37 1010.31 1011.21 1011.86 1012.68 1013.15 1013.30 1013.79 1014.36 1015.08 1015.54 1016.32 1017.07 1018.03 1018.52 1019.00 1019.35
1014.73 1015.89 1016.88 1017.62 1018.28 1018.25 1016.65 1016.04 1012.97 1010.79 1009.15 1008.07 1007.55 1007.36 1006.89 1006.44 1006.29 1006.19 1005.93 1005.76 1005.81 1006.01 1006.15 1006.26 1006.40 1006.34 1006.42 1006.54 1006.91 1007.07 1007.74 1008.69 1009.72 1010.37 1011.23 1012.11 1012.72 1013.42 1013.71 1014.09 1014.67 1015.23 1015.82 1016.43 1017.01 1017.76 1018.27 1018.97 1019.14
1015.39 1016.94 1018.58 1019.32 1019.61 1018.13 1016.86 1016.21 1012.70 1010.26 1008.96 1008.82 1008.59 1008.20 1007.57 1007.28 1007.01 1006.49 1006.01 1006.06 1005.91 1005.90 1005.91 1005.87 1005.90 1005.97 1006.00 1006.34 1006.45 1006.64 1007.19 1007.76 1008.63 1009.51 1010.36 1011.54 1012.53 1013.22 1013.61 1014.17 1014.79 1015.35 1015.78 1016.28 1017.03 1017.72 1018.32 1018.94 1019.27
1015.92 1017.19 1018.70 1019.43 1019.85 1018.73 1016.66 1014.96 1011.60 1009.79 1008.98 1008.54 1008.60 1008.43 1007.93 1007.79 1007.63 1007.13 1006.89 1006.44 1006.11 1006.04 1005.98 1005.89 1005.89 1005.90 1005.79 1005.80 1006.02 1006.19 1006.64 1007.47 1008.43 1009.02 1009.71 1010.58 1011.61 1012.67 1013.21 1014.08 1014.79 1015.57 1015.94 1016.38 1017.25 1017.82 1018.60 1019.30 1019.62
1016.10 1017.24 1018.17 1019.24 1020.24 1019.69 1016.81 1014.13 1011.14 1009.67 1009.20 1008.95 1008.82 1008.64 1008.64 1008.40 1008.04 1007.74 1007.47 1006.81 1006.30 1006.14 1006.00 1005.83 1005.63 1005.54 1005.52 1005.40 1005.73 1006.19 1006.82 1007.38 1007.84 1008.80 1009.65 1010.55 1011.58 1012.50 1013.22 1013.96 1014.94 1015.72 1016.31 1016.60 1017.40 1018.29 1018.58 1019.65 1019.59
1015.56 1016.84 1018.47 1019.63 1020.40 1019.50 1016.70 1014.72 1011.61 1010.03 1009.55 1009.49 1009.22 1009.11 1009.00 1008.60 1008.05 1007.58 1007.49 1007.12 1006.76 1006.27 1005.99 1005.69 1005.60 1005.35 1005.04 1005.19 1005.63 1006.26 1006.63 1007.27 1007.91 1008.58 1009.54 1010.35 1011.56 1012.37 1013.18 1014.11 1014.94 1015.77 1016.55 1017.06 1017.75 1018.31 1018.69 1019.98 1019.89
1016.08 1016.82 1017.82 1018.85 1019.52 1019.50 1017.80 1013.65 1010.68 1009.92 1009.48 1009.42 1009.15 1008.89 1008.70 1008.43 1008.12 1007.53 1007.21 1006.97 1006.46 1006.27 1005.93 1005.49 1005.15 1005.30 1005.05 1005.20 1005.69 1006.50 1007.03 1007.62 1008.36 1009.15 1009.70 1010.41 1011.40 1012.35 1013.20 1014.11 1014.94 1016.05 1016.85 1017.58 1018.22 1018.80 1019.42 1019.90 1020.03
1015.77 1016.52 1017.47 1018.58 1019.18 1019.25 1018.19 1013.31 1010.02 1009.46 1009.25 1009.16 1008.70 1008.67 1008.67 1008.51 1008.09 1007.60 1007.34 1006.86 1006.52 1006.54 1006.18 1005.45 1004.98 1004.98 1005.22 1005.22 1006.02 1006.76 1007.34 1008.01 1008.89 1009.61 1010.17 1010.62 1011.63 1012.62 1013.42 1014.33 1015.28 1016.39 1017.30 1017.87 1018.63 1019.13 1019.74 1020.45 1020.42
Thickness
5700 5705 5708 5702 5675 5669 5671 5691 5714 5719 5731 5754 5760 5755 5749 5751 5744 5731 5768 5766 5764 5760 5758 5755 5754 5753 5751 5748 5745 5744 5743 5741 5740 5738 5736 5733 5732 5730 5729 5729 5730 5731 5730 5728 5727 5726 5724 5722 5720
5693 5698 5694 5679 5658 5656 5670 5698 5707 5719 5738 5747 5756 5751 5746 5740 5758 5753 5755 5760 5764 5759 5755 5752 5750 5749 5747 5745 5743 5741 5739 5738 5736 5733 5731 5730 5728 5726 5725 5723 5722 5723 5723 5722 5720 5719 5717 5716 5715
5686 5689 5674 5662 5650 5659 5673 5699 5715 5729 5740 5748 5748 5753 5744 5746 5758 5757 5766 5762 5759 5755 5752 5748 5746 5744 5742 5740 5739 5737 5735 5733 5731 5729 5726 5724 5723 5721 5720 5719 5717 5716 5715 5714 5714 5712 5711 5711 5710
5675 5672 5663 5649 5657 5678 5690 5700 5711 5717 5737 5749 5749 5732 5745 5759 5758 5762 5762 5760 5756 5752 5748 5744 5741 5740 5738 5735 5734 5732 5731 5729 5727 5725 5722 5719 5718 5716 5714 5713 5712 5711 5710 5709 5707 5707 5706 5705 5705
5666 5656 5642 5645 5661 5678 5692 5696 5704 5707 5722 5741 5744 5728 5731 5752 5759 5759 5758 5756 5752 5747 5744 5740 5737 5735 5734 5733 5731 5730 5728 5725 5723 5721 5718 5715 5713 5711 5710 5708 5707 5707 5706 5703 5701 5701 5700 5699 5698
5648 5648 5632 5644 5661 5679 5687 5693 5697 5706 5718 5733 5732 5721 5724 5746 5749 5749 5751 5749 5748 5744 5739 5735 5734 5731 5730 5729 5727 5726 5726 5723 5720 5717 5715 5713 5710 5706 5704 5703 5701 5700 5700 5699 5697 5696 5695 5694 5694
5640 5635 5636 5648 5655 5663 5686 5692 5690 5701 5709 5724 5735 5710 5722 5734 5745 5746 5744 5741 5739 5738 5736 5732 5729 5728 5726 5725 5724 5722 5721 5719 5717 5713 5710 5708 5705 5702 5700 5698 5697 5695 5693 5693 5693 5691 5691 5690 5691
5638 5633 5637 5646 5652 5664 5685 5692 5700 5699 5709 5733 5735 5705 5709 5731 5740 5739 5736 5734 5732 5732 5729 5729 5726 5723 5721 5719 5719 5717 5716 5715 5713 5709 5706 5703 5701 5699 5696 5694 5692 5690 5689 5688 5686 5686 5687 5687 5686
5638 5619 5624 5647 5650 5672 5685 5681 5695 5713 5711 5723 5727 5724 5736 5738 5734 5728 5725 5724 5723 5723 5723 5722 5721 5719 5717 5714 5713 5711 5711 5709 5708 5706 5703 5701 5698 5695 5693 5691 5689 5687 5685 5685 5683 5682 5681 5681 5680
5622 5614 5632 5657 5665 5668 5673 5675 5678 5686 5698 5707 5713 5725 5731 5732 5728 5721 5719 5718 5718 5718 5718 5718 5716 5714 5712 5709 5707 5706 5706 5705 5703 5701 5699 5697 5695 5693 5690 5688 5685 5683 5681 5680 5679 5677 5677 5676 5675
5622 5621 5643 5656 5663 5666 5668 5668 5674 5677 5684 5695 5700 5711 5716 5719 5722 5721 5720 5722 5721 5717 5716 5716 5714 5712 5709 5707 5703 5700 5700 5699 5698 5697 5695 5693 5691 5690 5688 5684 5682 5680 5677 5676 5674 5672 5671 5671 5669
5617 5631 5643 5652 5657 5657 5661 5669 5667 5671 5683 5696 5694 5700 5704 5707 5711 5717 5718 5719 5716 5715 5716 5714 5711 5710 5707 5704 5701 5699 5697 5695 5693 5692 5691 5689 5687 5686 5684 5681 5678 5675 5673 5670 5668 5666 5665 5664 5662
5615 5625 5638 5646 5647 5650 5658 5660 5662 5668 5679 5690 5691 5688 5693 5697 5702 5708 5712 5713 5716 5715 5714 5714 5710 5709 5706 5703 5699 5697 5693 5692 5691 5689 5687 5686 5684 5682 5680 5678 5675 5672 5670 5667 5664 5661 5658 5656 5654
5617 5621 5626 5637 5641 5644 5649 5655 5659 5671 5674 5676 5685 5684 5684 5690 5700 5702 5703 5707 5705 5710 5712 5712 5709 5708 5706 5705 5701 5696 5692 5690 5689 5688 5686 5683 5682 5679 5677 5674 5671 5669 5666 5663 5661 5657 5653 5651 5647
5614 5611 5618 5628 5637 5636 5644 5650 5652 5665 5665 5663 5674 5679 5685 5687 5694 5698 5703 5701 5703 5706 5710 5709 5710 5707 5705 5706 5702 5698 5695 5691 5688 5685 5682 5680 5678 5676 5674 5670 5668 5666 5663 5659 5654 5650 5646 5644 5640
5600 5600 5598 5622 5629 5632 5630 5647 5656 5661 5657 5657 5665 5674 5679 5686 5690 5698 5703 5702 5703 5701 5704 5707 5709 5707 5703 5703 5700 5697 5693 5691 5687 5683 5681 5678 5676 5675 5670 5666 5663 5662 5657 5653 5648 5643 5639 5634 5631
5587 5580 5589 5601 5621 5624 5622 5631 5653 5662 5656 5653 5659 5665 5672 5678 5685 5692 5701 5702 5704 5702 5700 5701 5704 5703 5703 5700 5695 5694 5691 5690 5687 5682 5679 5678 5674 5671 5666 5662 5658 5654 5650 5646 5642 5636 5632 5624 5621
5575 5579 5586 5592 5612 5619 5619 5619 5643 5649 5649 5653 5655 5663 5667 5673 5685 5690 5693 5697 5699 5701 5698 5697 5699 5700 5698 5694 5690 5689 5685 5685 5685 5682 5678 5675 5672 5668 5662 5657 5651 5647 5642 5637 5634 5630 5622 5617 5613
5579 5581 5582 5592 5606 5606 5611 5613 5631 5643 5641 5645 5655 5659 5664 5672 5683 5683 5687 5690 5692 5693 5695 5694 5695 5697 5694 5689 5684 5682 5678 5677 5679 5679 5680 5675 5672 5664 5657 5652 5646 5642 5637 5633 5627 5619 5614 5607 5605
5569 5573 5575 5584 5596 5600 5603 5614 5629 5642 5647 5651 5656 5665 5669 5669 5674 5677 5680 5683 5686 5689 5689 5688 5689 5694 5695 5693 5691 5687 5683 5677 5678 5674 5675 5675 5672 5662 5652 5647 5643 5639 5631 5624 5619 5616 5605 5600 5597
5563 5566 5570 5572 5581 5589 5592 5616 5628 5639 5648 5654 5660 5664 5665 5668 5672 5675 5673 5676 5678 5679 5683 5684 5686 5688 5693 5694 5688 5680 5675 5669 5666 5665 5665 5666 5666 5657 5648 5644 5640 5635 5629 5621 5614 5610 5605 5594 5590
5559 5564 5567 5567 5567 5560 5576 5576 5602 5625 5634 5644 5648 5649 5655 5660 5664 5669 5671 5672 5675 5679 5680 5681 5683 5683 5683 5686 5681 5681 5679 5671 5669 5666 5659 5654 5655 5651 5643 5638 5635 5630 5626 5618 5610 5604 5599 5594 5585
5556 5561 5559 5558 5549 5548 5560 5558 5600 5614 5628 5641 5646 5650 5651 5652 5655 5657 5661 5665 5669 5669 5669 5671 5673 5674 5674 5673 5677 5672 5671 5672 5666 5658 5649 5644 5640 5636 5636 5631 5626 5621 5617 5611 5605 5595 5590 5585 5581
5555 5549 5541 5539 5527 5507 5552 5556 5583 5610 5628 5638 5642 5639 5646 5651 5649 5651 5655 5657 5658 5657 5657 5656 5656 5660 5660 5662 5664 5667 5665 5656 5651 5646 5640 5633 5627 5622 5621 5618 5615 5611 5606 5601 5596 5589 5584 5576 5573
5546 5520 5482 5497 5492 5528 5559 5547 5577 5605 5617 5619 5618 5620 5626 5631 5634 5640 5645 5644 5645 5646 5645 5646 5645 5647 5647 5647 5651 5655 5656 5652 5648 5642 5637 5625 5617 5613 5612 5609 5604 5600 5597 5593 5587 5580 5573 5567 5563
5539 5525 5495 5523 5528 5530 5554 5561 5589 5605 5607 5612 5610 5611 5613 5614 5613 5617 5624 5624 5626 5627 5627 5628 5628 5630 5631 5635 5638 5640 5641 5638 5632 5630 5629 5623 5615 5606 5605 5599 5595 5589 5586 5583 5575 5569 5562 5555 5551
5535 5506 5530 5512 5495 5477 5535 5559 5589 5598 5598 5597 5597 5599 5596 5597 5599 5598 5602 5605 5608 5608 5609 5610 5612 5615 5617 5623 5624 5622 5621 5620 5620 5617 5615 5610 5603 5597 5594 5590 5583 5577 5573 5571 5564 5556 5554 5544 5541
5540 5535 5501 5467 5465 5506 5539 5544 5573 5590 5591 5586 5582 5581 5582 5583 5588 5587 5586 5586 5587 5591 5592 5593 5593 5599 5606 5611 5611 5610 5609 5606 5604 5603 5602 5599 5592 5588 5583 5578 5572 5567 5562 5558 5551 5546 5541 5531 5529
5530 5526 5529 5510 5501 5488 5515 5558 5574 5584 5583 5575 5574 5574 5576 5573 5571 5570 5565 5564 5567 5568 5571 5575 5579 5580 5590 5594 5595 5594 5593 5592 5589 5586 5586 5585 5581 5576 5572 5566 5562 5556 5549 5543 5537 5531 5527 5520 5518
5536 5531 5525 5484 5502 5487 5477 5545 5582 5576 5577 5571 5576 5571 5563 5557 5553 5552 5547 5545 5545 5545 5549 5558 5564 5568 5570 5578 5576 5576 5577 5575 5572 5570 5570 5571 5568 5563 5559 5555 5551 5543 5537 5532 5525 5520 5513 5508 5505